Tracking 19832 objects as of 26-Aug-2019
HD Live streaming from Space Station
objects crossing your sky now

DIAMOND RED

Track DIAMOND RED now!
10-day predictions


NORAD ID: 42783
Int'l Code: 2017-036U
Perigee: 497.9 km
Apogee: 514.3 km
Inclination: 97.3 °
Period: 94.6 minutes
Semi major axis: 6877 km
RCS: Unknown
Launch date: June 23, 2017
Source: Australia (AUS)
Launch site: SRIHARIKOTA (SRI)
aabbcc
Your satellite tracking list
Your tracking list is empty




NASA's NSSDC Master Catalog

Two Line Element Set (TLE):
1 42783U 17036U   19237.68373215  .00000518  00000-0  25469-4 0  9992
2 42783  97.3455 293.7691 0011968   0.5914 359.5335 15.22280730120590
Source of the keplerian elements: AFSPC